Location: Newark
(51.0500°N, 12.4500°E)
Time: 13:30:58
(UTC+00:00)

Vanguard 1 - Pass Details

Date: 26 February 2020
Orbit: 649 x 3833 km, 34.2° (Epoch: 07 April)

Event Time Altitude Azimuth Distance (km) Brightness Sun altitude
Rises 09:40:06 0° 261° (W) 7,804 14.5 26.1°
Reaches altitude 10° 09:46:19 10° 256° (WSW) 6,502 14.2 26.5°
Maximum altitude 10:03:01 38° 198° (SSW) 3,422 13.9 27.6°
Drops below altitude 10° 10:13:18 10° 135° (SE) 4,045 14.4 28.2°
Sets 10:16:10 0° 127° (SE) 4,681 14.3 28.4°
